This is the latest recevied weather packets stored in our database for station/object S57D-6. If no packets are shown the sender has not sent any weather packets the latest 10 day(s).
| Time | Temp. | Humidity | Pressure | Rain* | Wind** | Luminosity | Snow |
|---|---|---|---|---|---|---|---|
| 1777914739 | 21.67° C | 42% | 1014.1 hPa | 0 mm | - | - | - |
| 1777914438 | 21.67° C | 42% | 1014.1 hPa | 0 mm | - | - | - |
| 1777914138 | 21.67° C | 42% | 1014 hPa | 0 mm | - | - | - |
| 1777913837 | 22.22° C | 41% | 1014 hPa | 0 mm | - | - | - |
| 1777913538 | 22.22° C | 41% | 1013.8 hPa | 0 mm | - | - | - |
| 1777912935 | 22.22° C | 41% | 1014 hPa | 0 mm | - | - | - |
| 1777912635 | 22.78° C | 41% | 1013.9 hPa | 0 mm | - | - | - |
| 1777912334 | 22.22° C | 41% | 1014 hPa | 0 mm | - | - | - |
| 1777912035 | 22.22° C | 40% | 1013.9 hPa | 0 mm | - | - | - |
| 1777911734 | 22.22° C | 40% | 1013.9 hPa | 0 mm | - | - | - |
| 1777911434 | 22.78° C | 39% | 1014 hPa | 0 mm | - | - | - |
| 1777911133 | 22.78° C | 38% | 1014 hPa | 0 mm | - | - | - |
| 1777910836 | 22.78° C | 38% | 1014 hPa | 0 mm | - | - | - |
| 1777910533 | 23.33° C | 37% | 1014.2 hPa | 0 mm | - | - | - |
| 1777910233 | 23.89° C | 37% | 1014.1 hPa | 0 mm | - | - | - |
| 1777909932 | 23.89° C | 37% | 1014.2 hPa | 0 mm | - | - | - |
| 1777909633 | 23.89° C | 37% | 1014 hPa | 0 mm | - | - | - |
| 1777909271 | 23.89° C | 37% | 1014.2 hPa | 0 mm | - | - | - |
| 1777908970 | 24.44° C | 37% | 1014.1 hPa | 0 mm | - | - | - |
| 1777908671 | 23.89° C | 37% | 1014.1 hPa | 0 mm | - | - | - |
| 1777908370 | 23.89° C | 39% | 1014.1 hPa | 0 mm | - | - | - |
| 1777908070 | 23.33° C | 39% | 1014.2 hPa | 0 mm | - | - | - |
| 1777907769 | 23.33° C | 39% | 1014.3 hPa | 0 mm | - | - | - |
| 1777907470 | 23.89° C | 38% | 1014.4 hPa | 0 mm | - | - | - |
| 1777907169 | 23.89° C | 38% | 1014.4 hPa | 0 mm | - | - | - |
* Rain latest hour (hover to see other rain measurements)
** Current wind speed in m/s (hover to see current wind gust speed)